Frenchville, ME

10:10 PM EDT on June 25, 2017 (GMT -0400)
Northern Aroostook Regional

Weather History for KFVE - March, 2014

Change the Weather History Date:

Sunday, March 23, 2014

  Actual Average Record
Temperature  
Mean Temperature 8 °F 26 °F  
Max Temperature 18 °F 34 °F 45 °F (2012)
Min Temperature -2 °F 18 °F -2 °F (2014)
Degree Days  
Heating Degree Days 57    
Month to date heating degree days 1217  
Since 1 July heating degree days 8151  
Cooling Degree Days 0    
Month to date cooling degree days 0  
Year to date cooling degree days 0  
Moisture  
Dew Point 6 °F    
Average Humidity 77    
Maximum Humidity 96    
Minimum Humidity 53    
Precipitation  
Precipitation 0.02 in 0.05 in 0.06 in (1998)
Month to date precipitation 0.74 0.94  
Year to date precipitation 3.66 3.51  
Sea Level Pressure  
Sea Level Pressure 29.76 in    
Wind  
Wind Speed 13 mph (WNW)    
Max Wind Speed 28 mph    
Max Gust Speed 37 mph    
Visibility 6 miles    
Events Fog , Snow    
T = Trace of Precipitation, MM = Missing Value Source: NWS Daily Summary

Daily Weather History Graph

Daily Weather History Graph

Search for Another Location

Airport or City:

Trip Planner

Search our weather history database for the weather conditions in past years. The results will help you decide how hot, cold, wet, or windy it might be!

Date:

Astronomy

Mar. 23, 2014 Rise Set
Actual Time 6:30 AM EDT 6:50 PM EDT
Civil Twilight 5:59 AM EDT 7:20 PM EDT
Nautical Twilight 5:23 AM EDT 7:57 PM EDT
Astronomical Twilight 4:46 AM EDT 8:34 PM EDT
Moon 1:23 AM EDT (3/23) 10:48 AM EDT (3/23)
Length of Visible Light 13h 21m
Length of Day
12h 19m
Waning Gibbous, 55% of the Moon is Illuminated
Mar 23
Waning Gibbous
Mar 23
Last Quarter
Mar 30
New
Apr 7
First Quarter
Apr 15
Full

Hourly Weather History & Observations

Time (EDT) Temp. Windchill Dew Point Humidity Pressure Visibility Wind Dir Wind Speed Gust Speed Precip Events Conditions
12:53 AM 16.0 °F 4.4 °F 12.9 °F 88% 29.72 in 10.0 mi West 9.2 mph - N/A   Clear
1:53 AM 15.1 °F 5.2 °F 12.9 °F 91% 29.72 in 10.0 mi WSW 6.9 mph - N/A   Clear
2:53 AM 16.0 °F 2.9 °F 12.0 °F 84% 29.72 in 10.0 mi West 11.5 mph - N/A   Clear
3:53 AM 14.0 °F 2.9 °F 12.0 °F 92% 29.71 in 10.0 mi SW 8.1 mph - N/A   Clear
4:53 AM 15.1 °F 6.4 °F 12.9 °F 91% 29.69 in 10.0 mi SSW 5.8 mph - N/A   Overcast
5:07 AM 15.1 °F 5.2 °F 12.9 °F 91% 29.64 in 8.0 mi SSW 6.9 mph - 0.00 in Snow Light Snow
5:53 AM 16.0 °F 7.4 °F 14.0 °F 92% 29.68 in 10.0 mi South 5.8 mph - 0.00 in   Overcast
6:05 AM 17.1 °F 8.7 °F 15.1 °F 92% 29.63 in 10.0 mi South 5.8 mph - N/A   Overcast
6:12 AM 17.1 °F 8.7 °F 15.1 °F 92% 29.64 in 10.0 mi South 5.8 mph - N/A   Overcast
6:20 AM 17.1 °F 11.7 °F 15.1 °F 92% 29.64 in 10.0 mi SSW 3.5 mph - N/A   Overcast
6:41 AM 17.1 °F 11.7 °F 15.1 °F 92% 29.64 in 1.5 mi Variable 3.5 mph - 0.00 in Snow Light Snow
6:44 AM 17.1 °F - 15.1 °F 92% 29.63 in 0.8 mi Calm Calm - 0.00 in Snow Light Snow
6:53 AM 16.0 °F - 12.9 °F 88% 29.68 in 0.2 mi Calm Calm - 0.01 in Fog , Snow Snow
7:03 AM 16.0 °F - 14.0 °F 92% 29.64 in 0.2 mi Calm Calm - 0.00 in Fog , Snow Snow
7:13 AM 17.1 °F 11.7 °F 16.0 °F 96% 29.63 in 0.5 mi SSW 3.5 mph - 0.01 in Fog , Snow Snow
7:37 AM 15.1 °F 2.5 °F 12.0 °F 88% 29.66 in 0.5 mi NNW 10.4 mph - 0.01 in Fog , Snow Light Snow
7:45 AM 14.0 °F -0.8 °F 10.9 °F 88% 29.65 in 0.2 mi North 13.8 mph 20.7 mph 0.01 in Fog , Snow Snow
7:53 AM 12.9 °F -2.8 °F 10.9 °F 92% 29.71 in 0.2 mi North 15.0 mph - 0.01 in Fog , Snow Snow
8:41 AM 10.9 °F -7.0 °F 8.1 °F 88% 29.68 in 0.8 mi NNW 18.4 mph 23.0 mph 0.00 in Snow Light Snow
8:46 AM 10.9 °F -7.9 °F 7.0 °F 84% 29.69 in 1.0 mi NNW 20.7 mph - 0.00 in Snow Light Snow
8:53 AM 10.9 °F -8.8 °F 7.0 °F 84% 29.75 in 1.5 mi NNW 23.0 mph 29.9 mph 0.00 in Snow Light Snow
9:06 AM 10.0 °F -9.5 °F 6.1 °F 84% 29.70 in 0.8 mi NNW 21.9 mph 29.9 mph 0.00 in Snow Light Snow
9:21 AM 10.0 °F -7.6 °F 6.1 °F 84% 29.72 in 0.2 mi NW 17.3 mph 29.9 mph 0.00 in Fog Light Freezing Fog
9:37 AM 10.0 °F -9.5 °F 5.0 °F 80% 29.72 in 1.0 mi NW 21.9 mph 35.7 mph 0.00 in   Haze
9:53 AM 10.0 °F -8.6 °F 5.0 °F 80% 29.78 in 0.8 mi NW 19.6 mph 28.8 mph 0.00 in Snow Light Snow
10:09 AM 10.9 °F -6.5 °F 6.1 °F 81% 29.74 in 1.5 mi NW 17.3 mph - 0.00 in Snow Light Snow
10:13 AM 10.9 °F -5.4 °F 6.1 °F 81% 29.74 in 2.0 mi NW 15.0 mph - 0.00 in Snow Light Snow
10:25 AM 12.0 °F -6.0 °F 5.0 °F 73% 29.74 in 5.0 mi WNW 19.6 mph 26.5 mph 0.00 in Snow Light Snow
10:44 AM 12.9 °F -4.4 °F 3.9 °F 67% 29.75 in 10.0 mi WNW 18.4 mph 24.2 mph 0.00 in   Scattered Clouds
10:53 AM 12.9 °F -5.3 °F 3.0 °F 65% 29.80 in 8.0 mi WNW 20.7 mph 26.5 mph 0.00 in   Partly Cloudy
11:53 AM 15.1 °F -0.1 °F 1.9 °F 56% 29.81 in 10.0 mi NW 15.0 mph 25.3 mph N/A   Clear
12:53 PM 16.0 °F 0.1 °F 5.0 °F 62% 29.82 in 10.0 mi West 17.3 mph 27.6 mph 0.00 in   Overcast
1:53 PM 16.0 °F -0.4 °F 3.0 °F 57% 29.82 in 10.0 mi West 18.4 mph 24.2 mph 0.00 in   Overcast
2:53 PM 16.0 °F 0.6 °F 1.9 °F 54% 29.83 in 10.0 mi NW 16.1 mph 25.3 mph 0.00 in   Mostly Cloudy
3:53 PM 12.9 °F -3.4 °F -0.0 °F 56% 29.84 in 10.0 mi NW 16.1 mph 24.2 mph N/A   Mostly Cloudy
4:53 PM 10.9 °F -6.5 °F -0.9 °F 59% 29.86 in 9.0 mi NW 17.3 mph 26.5 mph 0.00 in Snow Light Snow
5:53 PM 9.0 °F -9.5 °F -5.1 °F 53% 29.89 in 10.0 mi WNW 18.4 mph 25.3 mph 0.00 in   Scattered Clouds
6:53 PM 6.1 °F -12.8 °F -8.0 °F 53% 29.92 in 10.0 mi NW 17.3 mph 23.0 mph N/A   Clear
7:53 PM 3.9 °F -15.6 °F -9.9 °F 53% 29.95 in 10.0 mi NW 17.3 mph 25.3 mph N/A   Clear
8:53 PM 1.0 °F -12.9 °F -11.0 °F 57% 29.98 in 10.0 mi NW 8.1 mph 25.3 mph N/A   Clear
9:53 PM -0.0 °F -18.0 °F -11.9 °F 57% 29.98 in 10.0 mi NW 12.7 mph 24.2 mph N/A   Clear
10:53 PM -0.9 °F -19.1 °F -11.0 °F 62% 29.98 in 10.0 mi NW 12.7 mph - N/A   Clear
11:53 PM -0.9 °F -16.4 °F -11.0 °F 62% 29.98 in 10.0 mi NW 9.2 mph - N/A   Clear